This demonstration page uses our WeatherBlox Daily Observations layout. Learn more.

Left ArrowRight Arrow

34.16533, -84.80231

Hourly Observations for July 3, 2016

Temp ( °F °C ) Dew Point ( °F °C ) Humidity (%) Winds ( mph kmh ) Pressure ( in mb ) Visibility ( mi km ) Precip ( " mm )
12:53 am 00:53 Clear 72 22.2 65 18.3 79 79 Calm 30.00 1016 10 16 0.00 0.00
1:53 am 01:53 Clear 73 22.8 65 18.3 76 76 Calm 30.00 1016 10 16 0.00 0.00
2:53 am 02:53 Clear 69 20.6 65 18.3 87 87 Calm 29.99 1016 10 16 0.00 0.00
3:53 am 03:53 Clear 69 20.6 65 18.3 87 87 Calm 29.98 1015 10 16 0.00 0.00
4:53 am 04:53 Clear 69 20.6 65 18.3 87 87 Calm 30.00 1016 10 16 0.00 0.00
5:53 am 05:53 Clear 67 19.4 64 17.8 91 91 Calm 30.01 1016 10 16 0.00 0.00
6:53 am 06:53 Sunny 67 19.4 64 17.8 91 91 Calm 30.02 1017 10 16 0.00 0.00
7:53 am 07:53 Sunny 74 23.3 66 18.9 76 76 Calm 30.03 1017 10 16 0.00 0.00
8:53 am 08:53 Sunny 76 24.4 66 18.9 72 72 VRB 3 6 30.05 1018 10 16 0.00 0.00
9:53 am 09:53 Sunny 82 27.8 67 19.4 60 60 Calm 30.05 1018 10 16 0.00 0.00
10:53 am 10:53 Sunny 87 30.6 66 18.9 50 50 Calm 30.04 1017 10 16 0.00 0.00
11:53 am 11:53 Sunny 90 32.2 65 18.3 44 44 Calm 30.04 1017 10 16 0.00 0.00
12:53 pm 12:53 Sunny 92 33.3 66 18.9 43 43 S 7 11 30.02 1017 10 16 0.00 0.00
1:53 pm 13:53 Mostly Cloudy 95 35 64 17.8 36 36 S 7 11 30.01 1016 10 16 0.00 0.00
2:53 pm 14:53 Mostly Cloudy 93 33.9 63 17.2 37 37 VRB 5 7 30.00 1016 10 16 0.00 0.00
3:53 pm 15:53 Sunny 93 33.9 66 18.9 41 41 VRB 3 6 29.98 1015 10 16 0.00 0.00
4:53 pm 16:53 Sunny 95 35 64 17.8 36 36 VRB 7 11 29.96 1015 10 16 0.00 0.00
5:41 pm 17:41 Partly Cloudy with Nearby Thunderstorms 90 32.2 66 18.9 45 45 Calm 30.00 1016 10 16 0.00 0.00
5:53 pm 17:53 Partly Cloudy 89 31.7 66 18.9 47 47 VRB 3 6 29.98 1015 10 16 0.00 0.00
6:53 pm 18:53 Sunny 83 28.3 68 20 61 61 NNW 3 6 29.99 1016 10 16 0.00 0.00
7:53 pm 19:53 Mostly Sunny 84 28.9 69 20.6 61 61 Calm 29.98 1015 10 16 0.00 0.00
8:53 pm 20:53 Mostly Sunny 80 26.7 71 21.7 74 74 Calm 29.98 1015 10 16 0.00 0.00
9:53 pm 21:53 Clear 78 25.6 70 21.1 76 76 Calm 29.98 1015 10 16 0.00 0.00
10:53 pm 22:53 Mostly Clear 76 24.4 70 21.1 82 82 Calm 29.99 1016 10 16 0.00 0.00
11:53 pm 23:53 Clear 75 23.9 70 21.1 84 84 Calm 29.99 1016 10 16 0.00 0.00

Powered by AerisWeather